User: anonymous   Login
Location: Days
(41.3591°N, 106.7339°W)
Time: 09:40:17
(UTC+00:00)
Language:

NUDT-PHONESAT - Orbit

View from above orbital plane
View from above orbital plane
View from above satellite
View from above satellite

Ground track
Ground track

The orbit data is extracted from the following two-line orbital elements,

1 40900U 15049B   22179.85801219  .00020977  00000-0  59048-3 0  9991
2 40900  97.3990 197.8975 0007122 232.8445 250.8923 15.36467839376364
Epoch (UTC): 28 June 2022 20:35:32
Eccentricity: 0.0007122
inclination: 97.3990°
perigee height: 452 km
apogee height: 461 km
right ascension of ascending node: 197.8975°
argument of perigee: 232.8445°
revolutions per day: 15.36467839
mean anomaly at epoch: 250.8923°
orbit number at epoch: 37636

The dashed part of the orbit path shows where the satellite is in the earth's shadow,  

DLR